CZ-3A DEB, 35560

Orbit data source: Space-Track

CZ-3A DEB, 35560 is space debris in HEO originally from a launch on Fri, 02 Feb 2007 UTC launched from the Xichang Space Center, China (XSC). Debris objects in space refer to the collection of defunct objects orbiting the Earth. Examples of debris include non-operational satellites, rocket bodies, and fragments generated from explosions, collisions, or faulty payload assembly.

Loading next visibility...
Identifier
35560, 2007-003U
Orbit
HEO
Country
Flag of CNCN / PRC
Related business
Manufacturer
Unknown
Mission
Spacecraft
Bus & Motor
Unknown
Mass
Unknown
Launch date (UTC)
2007-02-02 (19 years ago)
Launch vehicle
Unknown
Launch site
Xichang Space Center, China (XSC)
Object type
Payload
Rocket body
Debris
Shape & HBR
Unknown shape, 0.2 m
Radar Cross Section
Medium (>0.1 m² and <1 m²)

Expand to show TLE details & history
Last TLE update: 3 months ago

TLE from 3 months ago
0 CZ-3A DEB
1 35560U 07003U   25313.48019541  .00006855  00000-0  20130-1 0  9996
2 35560  23.2547 270.2329 7080757 155.5741 268.6838  2.44124813 38664
Epoch: 2025-11-09T11:31Z
TLE epoch observation values (Epoch: 2025-11-09T11:31:28.883Z)
Latitude
0.00005°
Longitude
48.41045°
Altitude
26,304.567 km
Speed
2.699 km/s
True Right ascension
18h 00m 42s
True Declination
0° 00' 00"
Sunlit
Object was in daylight at epoch
Visualization orbit readout
Latitude
Unknown
Longitude
Unknown
Altitude
Unknown
Speed
Unknown
Apparent Right ascension
Unknown
Apparent Declination
Unknown
Sunlit
N/A
Visualization observer readout
Local Sidereal Time
11:55:46
Azimuth
Unknown
Elevation
Unknown
Doppler factor
Unknown
Orbital elements
Apogee altitude
33,424.449 km
Perigee altitude
424.455 km
Semi-major axis
23,302.589 km
Eccentricity
0.70808
Inclination
23.2547°
RAAN
270.2329°
Arg. of periapsis
155.5741°
True anomaly
204.45198°
Mean anomaly
268.6838°
Eccentric anomaly
235.32111°
Mean motion
0.61015 °/min
Orbital period
590.02 mins
BSTAR
0.02013
Loading maneuver chart data...
Computing Atmospheric mass density...
Loading historical data...
Loading historical data...
Loading historical data...
Loading historical data...
Loading historical data...
Loading historical data...
Loading historical data...

Documentation

Showing up to 5 results
|